Location: Bęczków
(50.8761°N, 20.8028°E)
Time: 08:42:00
(UTC+02:00)

Envisat - Pass Details

Date: 26 March 2019
Orbit: 764 x 766 km, 98.2° (Epoch: 25 April)

Event Time Altitude Azimuth Distance (km) Brightness Sun altitude
Rises 18:50:19 0° 190° (S) 3,222 6.2 -8.8°
Reaches altitude 10° 18:52:49 10° 199° (SSW) 2,301 5.5 -9.2°
Maximum altitude 18:57:25 35° 265° (W) 1,237 4.8 -9.9°
Drops below altitude 10° 19:02:04 10° 330° (NNW) 2,316 6.2 -10.6°
Sets 19:04:35 0° 340° (NNW) 3,247 6.8 -10.9°
